Regional Weather Roundup
Issued by NWS

Home | Current Version | Previous Version | Text Only | Print | Product List | Glossary On
Versions: 1 2 3 4 5 6 7 8 9 10 11 12 13 14 15 16 17 18 19 20 21 22 23 24 25 26 27 28 29 30 31 32 33 34 35 36 37 38 39 40 41 42 43 44 45 46 47 48 49 50
000
ASUS45 KBOI 031510
RWRID
WEATHER ROUNDUP FOR IDAHO
NATIONAL WEATHER SERVICE BOISE ID
800 AM MST TUE MAR 03 2015

NOTE: "FAIR" INDICATES FEW OR NO CLOUDS BELOW 12000 FEET
WITH NO SIGNIFICANT WEATHER AND/OR OBSTRUCTIONS TO VISIBILITY

IDZ012-014-031600-
SOUTHWEST IDAHO


CITY           SKY/WX    TMP DP  RH WIND       PRES   REMARKS
BOISE          CLEAR     29  19  66 NW13      29.99R WCI  19
CALDWELL       CLEAR     30  16  55 NW16      30.04R WCI  19
MOUNTAIN HOME  CLEAR     29  17  60 NW23      29.95R WCI  15
$$

IDZ016-017-031600-
SOUTHCENTRAL IDAHO


CITY           SKY/WX    TMP DP  RH WIND       PRES   REMARKS
BURLEY         CLOUDY    28  18  66 W20G31    29.83R WCI  15
JEROME         CLOUDY    25  18  74 W24       29.86R WCI   9
TWIN FALLS     CLEAR     28  17  63 W28G36    29.86R WCI  13
$$

IDZ019>023-031600-
SOUTHEAST IDAHO


CITY           SKY/WX    TMP DP  RH WIND       PRES   REMARKS
IDAHO FALLS    CLOUDY    18  14  84 N12       29.88R WCI   5
POCATELLO      SNOW      21  20  96 NE13      29.89R VSB 1/2 WCI   9
REXBURG        CLOUDY    16  12  84 NE6       29.87R WCI   7
$$

IDZ006-010-011-018-031-032-031600-
CENTRAL IDAHO MOUNTAINS


CITY           SKY/WX    TMP DP  RH WIND       PRES   REMARKS
MCCALL         CLOUDY    23  16  74 VRB5      29.90R WCI  17
HAILEY         PTCLDY    27  23  86 CALM      29.80R
STANLEY          N/A     15   6  67 CALM      29.83R
SALMON         CLOUDY    19   1  45 N10       30.00R WCI   8
CHALLIS        MOCLDY    19   7  59 N10       29.90R WCI   7
$$

IDZ002-004-006-007-026-031600-
NORTHERN IDAHO


CITY           SKY/WX    TMP DP  RH WIND       PRES   REMARKS
LEWISTON       PTCLDY    29  22  75 SE3       30.17R
LOWELL           N/A     30  17  58 CALM      30.18R
COEUR D`ALENE  CLEAR     21   9  58 NE7       30.15S WCI  13
MULLAN PASS    CLOUDY     6   3  87 SE3       29.92S
$$


USA.gov is the U.S. government's official web portal to all federal, state and local government web resources and services.